Regional Weather Roundup
Issued by NWS

Home | Current Version | Previous Version | Graphics & Text | Print | Product List | Glossary Off
Versions: 1 2 3 4 5 6 7 8 9 10 11 12 13 14 15 16 17 18 19 20 21 22 23 24 25 26 27 28 29 30 31 32 33 34 35 36 37 38 39 40 41 42 43 44 45 46 47 48 49 50

000
ASUS45 KABQ 230201
RWRNM
NEW MEXICO REGIONAL WEATHER ROUNDUP
NATIONAL WEATHER SERVICE ALBUQUERQUE NM
700 PM MST WED FEB 22 2017

NOTE: "FAIR" MEANS FEW OR NO CLOUDS BELOW 12,000 FEET AGL WITH NO
       SIGNIFICANT WEATHER OR OBSTRUCTIONS TO VISION.

      THIS PRODUCT IS RELEASED AS TWO VERSIONS.  ONE VERSION NEAR
      THE TOP OF THE HOUR CONTAINING PRELIMINARY DATA FROM ALBUQUERQUE
      AND OTHER STATIONS.  A FINAL VERSION WITH ADDITIONAL DATA IS
      ISSUED ABOUT 10 MINUTES AFTER THE HOUR.

NMZ501-503-504-510>518-230300-
NORTHWEST PLATEAU/NORTHCENTRAL MOUNTAINS

CITY           SKY/WX    TMP DP  RH WIND       PRES   REMARKS
FARMINGTON     FAIR      56  12  17 SW24G31   29.76F
LOS ALAMOS     CLOUDY    49  28  44 W12G24    29.93F
SANTA FE       CLOUDY    52  31  44 CALM      29.90F
TAOS             N/A     46  19  34 SW6       29.91F
ANGEL FIRE     CLOUDY    35  30  82 W20G26    29.96F WCI  24

$$
NMZ402-403-502-505>509-230300-
WESTCENTRAL MOUNTAINS/SOUTHWEST MOUNTAINS

CITY           SKY/WX    TMP DP  RH WIND       PRES   REMARKS
GALLUP         CLOUDY    52  16  24 SW22G45   29.90F
GRANTS         CLOUDY    46  31  56 NW17G23   29.97F
SILVER CITY    FAIR      51  35  53 NW9       29.95F

$$
NMZ407-409-411-412-230300-
SOUTHERN DESERTS

CITY           SKY/WX    TMP DP  RH WIND       PRES   REMARKS
DEMING         FAIR      65  34  31 W8        29.89F
LAS CRUCES     FAIR      63  29  28 W7        29.91S
HOLLOMAN AFB   FAIR      66  29  24 S8        29.91R
ALAMOGORDO     FAIR      57  32  38 S8        29.89S
T OR C         FAIR      67  26  21 SW12      29.89R

$$
NMZ519>523-230300-
CENTRAL VALLEYS/CENTRAL HIGHLANDS

CITY           SKY/WX    TMP DP  RH WIND       PRES   REMARKS
ALBUQUERQUE    MOCLDY    59  33  37 W10       29.87S
DOUBLE EAGLE   MOCLDY    54  32  43 SW12      29.90S
MORIARTY ARPT  MOCLDY    54  32  43 CALM      29.91F
CLINES CORNERS CLOUDY    50  28  42 W10       29.94F
BELEN          FAIR      56  32  38 W8        29.87S
SOCORRO        FAIR      64  26  24 W10       29.87R

$$
NMZ524>526-539-540-230300-
SOUTHCENTRAL MOUNTAINS

CITY           SKY/WX    TMP DP  RH WIND       PRES   REMARKS
RUIDOSO        NOT AVBL

$$
NMZ527>531-230300-
NORTHEAST HIGHLANDS/NORTHEAST PLAINS

CITY           SKY/WX    TMP DP  RH WIND       PRES   REMARKS
RATON          FAIR      44  29  55 S13       29.86F
CLAYTON        FAIR      58  26  29 W14G24    29.83F

$$
NMZ532>537-230300-
EASTCENTRAL PLAINS

CITY           SKY/WX    TMP DP  RH WIND       PRES   REMARKS
TUCUMCARI      FAIR      62  32  32 NW10      29.79S
CANNON AFB     FAIR      64  31  28 W8        29.82S
CLOVIS AIRPORT FAIR      55  34  44 W7        29.82S

$$
NMZ028-029-538-230300-
SOUTHEAST PLAINS

CITY           SKY/WX    TMP DP  RH WIND       PRES   REMARKS
ROSWELL        FAIR      70  26  19 W12         N/A
ARTESIA        FAIR      64  25  22 SW9       29.82S
CARLSBAD       FAIR      71  18  13 W5        29.80S
HOBBS          FAIR      63  18  17 S9        29.83S


$$



USA.gov is the U.S. government's official web portal to all federal, state and local government web resources and services.